sat.trackr.live / text

‹ back to catalog

GOSAT (IBUKI)

NORAD 33492 · 2009-002A

PAYLOAD ACTIVE UNKNOWN

§ Identity

Operator
Country
JPN
Launch date
2009-01-23
Launch site
TANSC
Launch vehicle
Mass (kg)
RCS (m²)
4.65

Purposes: earth_obs

External: N2YO · Heavens-Above · Gunter

§ Orbital elements

Epoch: 2026-05-25T03:51:47.937600Z

Period
98.12 min
Inclination
98.0870°
Eccentricity
0.0001532
Mean motion
14.67537886 rev/d
Perigee alt
667.9 km
Apogee alt
670.0 km
Semi-major
7,047.1 km
B*
7.5129e-7
RAAN
256.5336°
Arg perigee
97.7588°
Mean anomaly
262.3790°
Rev number
92,808

§ Raw data

GOSAT (IBUKI)1 33492U 09002A   26145.16097150 -.00000044  00000+0  75129-6 0  99972 33492  98.0870 256.5336 0001532  97.7588 262.3790 14.67537886928081

JSON: /api/v1/satellites/33492 · /tle

For live sub-satellite position, see the globe view (requires WebGL).

§ Visibility from observer

Set your observer location to see the next 7 days of passes ≥ 10°. The values pass through the URL so the page stays shareable.

No JS? Fill the form by hand. The geolocation button needs JavaScript.

§ Radio — SatNOGS DB

ModeDescriptionDownlinkUplink
FM S-band telemetry 2.220 GHz

1 transmitter · refreshed weekly from db.satnogs.org